Wind_Speed
21 21 21 22 22 22 20 17 14 13 11 11 10 10 10 10 11 12 13 15 16 16 17 19 19 19 20 19 20 22 23 26 26 25 26 27 30 33 32 28 27 27 26
20 20 20 22 23 23 22 19 17 16 15 14 14 13 13 14 15 16 16 18 19 17 17 19 23 24 20 21 20 21 22 25 26 28 31 31 33 33 34 34 28 25 25
21 21 20 21 22 22 21 20 20 18 17 18 17 16 16 17 19 20 20 21 23 22 22 23 25 28 28 26 22 21 23 26 30 31 31 34 35 37 37 34 31 27 24
15 15 18 23 23 22 20 20 21 20 19 19 18 17 18 20 21 22 23 24 24 26 26 28 28 29 33 33 29 27 24 25 29 29 34 37 37 39 39 40 42 34 30
26 23 20 15 15 19 21 23 22 24 19 17 18 18 18 18 20 22 23 25 27 26 28 27 33 33 37 34 30 31 29 28 29 30 31 35 37 38 39 40 42 43 38
35 33 27 27 24 21 18 21 24 25 22 18 19 19 17 15 20 20 23 28 31 29 31 38 39 37 35 33 32 29 31 34 37 39 39 40 40 39 39 41 42 46 48
37 35 31 30 29 28 26 25 24 25 23 23 23 22 17 14 26 30 31 29 33 35 35 38 34 31 39 35 31 32 38 41 41 40 41 41 41 41 41 42 43 45 48
41 39 38 37 34 31 33 35 33 29 27 26 21 14 11 12 29 33 40 35 30 34 38 39 37 32 37 35 36 40 43 42 44 46 46 45 45 42 42 42 42 43 43
42 40 40 42 39 37 38 40 39 37 35 34 21 21 22 27 27 27 39 40 37 35 38 38 36 35 37 37 39 44 45 48 47 47 48 48 48 45 37 40 43 42 42
30 40 50 48 45 47 46 44 43 44 43 35 31 29 38 33 31 33 36 35 35 37 41 37 35 36 37 37 43 47 50 50 49 48 44 43 41 39 34 31 33 35 34
20 26 34 45 50 50 50 45 44 47 48 45 42 40 39 39 38 36 33 31 32 39 34 31 37 42 43 47 49 52 52 51 48 43 39 34 30 27 23 24 30 32 34
19 21 23 27 39 49 48 45 41 46 51 51 46 47 45 42 39 29 32 34 38 35 30 32 41 41 45 49 52 51 47 43 40 37 35 31 28 28 29 31 25 27 29
27 21 26 41 45 49 48 43 47 44 47 48 49 52 44 45 37 25 35 41 37 35 33 35 39 42 47 48 49 45 39 39 37 34 32 31 28 29 29 27 27 25 26
35 31 25 23 34 46 48 49 47 41 43 47 48 46 40 43 32 31 33 30 32 35 33 36 41 43 43 43 38 37 36 35 32 32 32 28 28 28 26 29 28 27 27
38 34 30 29 32 41 43 42 43 43 45 45 42 35 30 28 25 28 28 28 33 31 34 38 39 40 38 36 35 35 32 29 29 26 24 24 25 27 27 28 28 27 27
33 35 29 26 30 37 38 40 42 39 31 27 26 23 22 29 38 30 29 32 32 32 33 34 35 33 33 32 30 27 26 23 20 18 20 22 23 24 23 22 25 25 26
31 28 28 25 25 28 29 28 29 25 18 15 20 25 37 40 33 29 32 31 30 30 31 30 28 28 27 23 20 17 15 13 15 17 20 23 21 18 19 20 22 24 21
26 20 22 23 22 27 30 24 20 15 16 22 26 26 23 29 28 29 29 27 26 28 25 24 23 20 16 13 11 10 13 13 15 17 18 21 23 22 23 22 22 24 24
15 17 24 29 30 27 26 22 19 22 34 41 30 25 27 29 27 27 24 23 24 22 21 19 15 12 11 9 9 11 12 15 16 16 17 19 20 21 24 25 24 23 24
31 26 22 21 16 18 17 12 15 18 22 20 23 25 25 23 23 21 20 19 18 17 14 12 12 12 11 11 13 13 14 14 15 17 18 18 19 20 21 21 24 25 21
6 9 11 10 8 6 6 6 10 15 18 21 21 19 18 18 17 16 15 13 13 14 12 13 13 13 12 13 14 15 15 15 15 16 17 17 19 18 20 24 24 24 22
10 6 2 2 4 7 9 10 13 14 16 16 16 15 15 15 14 12 12 13 13 12 13 13 13 13 14 14 15 15 15 16 15 15 16 15 16 18 17 19 23 24 27
4 4 3 1 4 9 10 9 10 12 13 12 12 12 12 10 10 12 12 11 12 13 13 13 14 16 16 16 16 16 15 14 13 14 14 14 14 16 16 18 20 24 23
5 4 7 7 9 11 12 13 10 8 8 8 8 9 10 11 10 10 11 12 12 13 15 16 16 16 17 17 17 16 14 14 13 12 13 13 13 13 15 16 18 22 26
8 9 5 5 5 4 3 3 3 3 5 6 8 9 9 10 11 11 12 13 14 16 17 17 17 17 18 18 17 16 14 14 13 12 12 13 13 14 14 13 16 19 20
1 1 2 2 2 2 2 2 3 4 5 6 7 9 10 11 12 13 14 15 16 17 17 17 17 16 15 17 15 15 15 15 13 13 11 12 13 13 14 14 13 12 19
Wind_Direction
214 217 217 217 218 221 227 231 238 243 249 253 261 267 281 295 303 302 305 308 313 311 314 313 307 307 307 307 314 315 315 317 321 324 327 327 329 327 321 317 313 308 307
224 227 225 223 224 228 234 240 243 248 253 257 261 271 280 288 293 297 302 307 307 307 308 309 306 305 298 298 305 311 310 310 309 312 315 322 325 328 325 318 313 307 300
226 227 230 233 232 232 236 239 243 248 254 263 272 282 289 293 295 299 302 303 303 303 302 304 303 305 304 303 303 306 308 311 309 311 315 320 325 329 326 319 313 312 301
228 231 236 238 240 241 242 243 247 254 258 265 280 283 288 289 293 294 295 297 298 297 302 307 307 309 305 299 296 299 302 298 306 315 319 323 322 319 320 317 311 308 300
236 249 246 248 252 248 242 243 247 256 258 264 272 285 288 297 302 302 295 292 290 295 300 304 308 309 299 292 299 307 308 310 314 314 309 310 310 309 306 303 304 302 300
241 244 250 250 247 251 261 253 248 250 258 260 267 271 281 297 315 315 299 294 288 291 297 302 309 306 291 291 294 302 305 311 311 310 309 308 308 306 300 297 296 294 293
237 244 248 247 247 248 252 255 253 252 251 252 257 264 279 324 325 293 277 279 286 295 305 308 312 293 302 298 295 295 300 305 305 308 309 308 306 301 297 294 288 283 283
235 237 242 248 250 249 249 252 249 245 250 254 257 270 280 309 325 275 282 287 282 283 300 310 310 294 293 291 295 302 307 309 310 310 310 308 305 304 300 295 288 285 283
238 240 238 242 247 251 254 257 254 250 248 256 259 268 258 274 299 280 283 293 281 286 297 304 302 293 298 293 298 302 306 307 305 303 304 303 302 302 296 290 290 289 289
255 250 246 244 243 246 249 249 254 249 248 249 248 256 266 272 281 282 287 290 286 291 301 301 298 294 295 297 300 303 305 305 304 303 301 298 300 298 297 290 294 293 292
252 249 252 246 244 243 247 248 249 249 247 242 243 248 254 263 272 282 285 285 296 289 291 288 288 301 305 302 303 304 305 305 306 306 306 305 303 299 291 274 274 282 289
280 259 260 264 243 254 246 245 242 256 252 242 245 249 248 249 265 283 283 280 288 286 283 279 296 297 298 299 299 300 302 305 306 307 307 306 296 295 285 292 296 289 288
274 273 252 245 247 248 238 242 250 242 239 236 241 242 241 247 270 281 292 287 289 285 286 292 294 296 295 296 296 299 302 303 304 307 305 300 297 298 296 297 290 296 294
266 270 277 267 252 236 229 238 248 236 232 230 232 238 243 264 272 286 274 279 282 286 291 294 293 291 292 292 296 300 304 307 308 309 306 301 303 303 300 296 295 302 298
265 268 267 266 249 236 231 224 223 220 222 225 227 237 258 267 276 276 281 281 287 292 293 291 293 296 297 298 300 304 306 308 309 309 309 309 306 301 299 301 301 301 300
263 264 264 263 255 240 231 218 214 214 222 224 254 266 288 303 292 282 286 288 291 292 289 290 290 293 296 300 304 305 308 315 321 329 336 328 319 314 310 307 304 299 302
254 254 258 254 241 228 222 215 205 197 227 256 277 276 291 279 277 284 289 291 290 286 283 287 291 296 297 298 298 303 316 326 328 333 342 348 345 338 332 319 315 313 305
232 222 220 217 211 200 193 193 206 209 278 290 286 266 272 275 281 285 282 283 280 279 285 290 293 294 292 294 304 312 322 326 334 339 342 346 352 350 341 335 328 325 316
213 199 184 189 187 183 193 199 239 272 285 294 278 267 273 281 278 275 279 278 280 287 291 290 285 284 288 289 305 314 318 320 326 331 338 341 341 348 356 344 336 333 327
165 165 168 182 207 234 243 239 255 267 260 255 261 271 270 267 272 279 279 282 285 283 277 271 281 285 283 296 311 311 313 314 320 325 331 338 336 343 354 355 351 343 334
133 155 158 159 166 178 220 242 256 264 267 266 266 267 270 274 278 280 281 279 272 270 273 282 283 281 284 294 299 304 309 312 318 324 329 335 332 346 352 352 357 348 347
136 141 138 262 255 249 253 254 258 270 284 285 284 283 276 274 275 276 279 275 269 275 281 279 281 283 288 292 295 299 304 310 317 324 328 334 337 346 352 350 341 354 356
152 151 164 190 308 306 303 302 302 290 281 274 268 263 259 264 270 267 263 266 273 277 278 282 288 288 290 293 297 299 303 308 316 325 330 337 341 343 353 351 351 348 357
346 327 315 313 293 273 266 268 266 258 262 268 274 278 278 277 278 285 291 291 289 286 286 288 287 288 290 292 294 299 306 310 318 326 332 339 336 350 354 360 356 357 349
253 270 285 276 263 252 261 246 246 283 302 294 281 279 286 294 298 297 294 290 287 284 285 285 286 290 293 295 299 303 307 310 315 323 329 334 348 344 346 3 3 1 354
135 137 155 174 136 80 41 359 309 285 289 300 306 311 314 313 308 301 295 291 289 287 287 288 290 289 289 293 300 303 306 307 310 317 327 332 337 344 344 359 1 21 356
Height
3170 3173 3175 3178 3181 3183 3186 3188 3191 3192 3194 3195 3197 3197 3198 3199 3199 3199 3199 3199 3198 3197 3195 3193 3192 3192 3191 3189 3187 3184 3181 3179 3178 3177 3173 3170 3167 3162 3158 3155 3153 3150 3148
3169 3171 3173 3176 3178 3180 3183 3186 3188 3190 3191 3193 3194 3195 3196 3197 3197 3196 3196 3196 3195 3194 3193 3190 3189 3187 3187 3185 3183 3180 3178 3176 3173 3170 3167 3163 3160 3157 3152 3148 3146 3144 3142
3165 3168 3170 3172 3175 3177 3180 3183 3184 3186 3188 3190 3191 3193 3194 3194 3194 3194 3194 3193 3191 3189 3188 3187 3186 3183 3181 3179 3177 3175 3172 3169 3166 3163 3162 3158 3153 3148 3145 3142 3139 3136 3135
3162 3164 3166 3169 3171 3174 3178 3180 3181 3182 3185 3186 3188 3190 3190 3190 3189 3189 3188 3187 3186 3184 3182 3181 3179 3177 3175 3173 3170 3169 3167 3165 3161 3157 3155 3151 3147 3143 3139 3135 3131 3129 3127
3159 3161 3163 3166 3168 3170 3173 3175 3177 3178 3181 3184 3185 3185 3185 3185 3184 3183 3182 3181 3180 3178 3177 3175 3172 3172 3168 3165 3164 3162 3160 3158 3155 3152 3150 3147 3142 3138 3133 3128 3123 3119 3118
3154 3156 3159 3162 3165 3167 3168 3170 3172 3173 3175 3179 3179 3179 3179 3179 3179 3178 3174 3173 3171 3171 3169 3168 3165 3162 3160 3160 3158 3157 3155 3152 3149 3145 3142 3137 3133 3128 3124 3119 3115 3111 3106
3146 3150 3153 3156 3158 3161 3164 3165 3166 3168 3171 3172 3173 3172 3173 3173 3173 3175 3169 3166 3164 3162 3161 3159 3157 3153 3149 3150 3150 3149 3148 3145 3141 3137 3133 3127 3122 3118 3114 3108 3104 3100 3096
3139 3143 3146 3148 3151 3155 3156 3156 3159 3161 3163 3165 3167 3169 3169 3168 3168 3164 3161 3159 3158 3155 3152 3150 3149 3148 3143 3145 3143 3140 3137 3134 3130 3123 3119 3116 3111 3107 3101 3096 3091 3087 3085
3133 3136 3139 3141 3144 3146 3148 3148 3151 3154 3155 3156 3163 3164 3162 3161 3161 3158 3156 3152 3151 3148 3146 3145 3142 3138 3139 3138 3136 3132 3128 3125 3121 3116 3109 3102 3097 3093 3091 3084 3079 3076 3073
3124 3126 3129 3133 3135 3135 3138 3140 3143 3147 3149 3155 3157 3156 3153 3154 3154 3153 3149 3145 3146 3145 3140 3138 3136 3133 3132 3131 3126 3122 3117 3113 3106 3102 3097 3092 3086 3080 3077 3074 3070 3066 3064
3115 3115 3117 3121 3124 3127 3129 3132 3135 3139 3142 3145 3147 3147 3146 3144 3145 3144 3143 3144 3143 3140 3138 3132 3126 3124 3124 3120 3116 3112 3107 3101 3094 3089 3084 3079 3075 3072 3071 3067 3061 3058 3056
3106 3106 3108 3112 3116 3120 3120 3122 3124 3126 3129 3134 3137 3136 3137 3138 3138 3137 3137 3138 3134 3133 3131 3128 3121 3120 3116 3111 3106 3102 3097 3090 3085 3080 3076 3071 3067 3065 3062 3057 3054 3051 3048
3097 3098 3099 3104 3105 3104 3109 3110 3110 3114 3115 3118 3122 3120 3127 3128 3129 3130 3134 3133 3124 3123 3122 3120 3117 3113 3108 3103 3096 3093 3088 3083 3077 3072 3068 3063 3059 3056 3052 3049 3046 3042 3039
3089 3090 3090 3090 3095 3094 3095 3097 3101 3104 3107 3109 3112 3111 3118 3119 3121 3119 3118 3120 3118 3115 3113 3110 3107 3104 3099 3094 3088 3082 3078 3073 3069 3064 3060 3057 3052 3049 3045 3041 3036 3033 3030
3078 3080 3081 3081 3082 3082 3084 3086 3087 3092 3096 3097 3107 3110 3109 3111 3111 3111 3108 3109 3109 3107 3102 3100 3096 3092 3089 3084 3079 3074 3070 3066 3062 3057 3053 3048 3045 3041 3037 3033 3028 3025 3021
3068 3069 3071 3071 3071 3073 3076 3080 3084 3089 3098 3102 3109 3106 3104 3103 3106 3107 3102 3100 3098 3096 3094 3091 3087 3084 3080 3076 3071 3068 3065 3061 3058 3052 3048 3043 3038 3033 3029 3025 3021 3018 3015
3060 3062 3063 3064 3067 3070 3074 3078 3082 3087 3092 3094 3100 3098 3098 3097 3094 3095 3097 3092 3088 3087 3086 3082 3078 3075 3072 3069 3067 3064 3060 3057 3053 3050 3045 3040 3033 3029 3026 3022 3018 3013 3009
3052 3054 3056 3060 3063 3068 3073 3078 3083 3085 3086 3089 3091 3089 3091 3091 3089 3088 3086 3083 3080 3079 3077 3074 3071 3068 3067 3065 3063 3061 3057 3053 3051 3045 3042 3037 3031 3025 3021 3017 3013 3008 3004
3051 3053 3057 3059 3062 3067 3068 3069 3076 3076 3076 3079 3080 3083 3084 3082 3082 3081 3077 3075 3074 3071 3069 3068 3066 3064 3063 3061 3059 3055 3053 3051 3047 3043 3038 3034 3029 3023 3017 3013 3008 3004 3000
3049 3054 3057 3059 3061 3064 3067 3066 3068 3069 3072 3074 3075 3076 3075 3075 3074 3072 3071 3068 3067 3066 3065 3064 3063 3061 3060 3058 3055 3053 3050 3046 3041 3040 3036 3030 3025 3020 3016 3011 3006 3001 2997
3055 3056 3059 3060 3062 3060 3066 3066 3066 3068 3069 3071 3073 3072 3072 3070 3067 3064 3063 3061 3062 3062 3061 3059 3058 3057 3054 3053 3051 3049 3046 3043 3037 3035 3032 3028 3022 3018 3013 3008 3004 2999 2994
3053 3057 3060 3062 3060 3061 3065 3065 3065 3065 3066 3067 3066 3065 3066 3065 3061 3059 3059 3059 3058 3057 3056 3055 3054 3052 3049 3048 3047 3044 3039 3038 3035 3031 3028 3024 3019 3016 3012 3009 3004 2998 2992
3057 3056 3058 3058 3059 3061 3062 3061 3059 3060 3061 3062 3062 3062 3062 3060 3057 3055 3054 3053 3053 3052 3052 3051 3050 3049 3048 3045 3043 3039 3036 3033 3031 3027 3024 3021 3016 3013 3010 3007 3003 2998 2991
3053 3058 3058 3057 3057 3058 3058 3059 3058 3058 3058 3059 3059 3059 3058 3057 3054 3052 3051 3050 3049 3048 3048 3047 3046 3044 3043 3041 3038 3035 3031 3029 3027 3024 3021 3018 3014 3011 3008 3005 3001 2998 2992
3057 3058 3055 3055 3056 3056 3056 3057 3057 3057 3056 3056 3057 3057 3054 3051 3049 3048 3047 3047 3045 3044 3043 3041 3039 3038 3037 3036 3033 3030 3027 3025 3023 3020 3018 3015 3011 3008 3005 3002 3000 2998 2993
3056 3056 3056 3057 3057 3056 3056 3056 3056 3056 3055 3054 3053 3051 3049 3046 3045 3044 3043 3043 3042 3040 3039 3036 3033 3032 3031 3029 3028 3025 3023 3022 3020 3017 3015 3012 3009 3006 3003 2999 2997 2995 2992